Hourly Data Report for June 09, 2021

FISHER BRANCH (AUT)
MANITOBA
Current Station Operator: ECCC - MSC

51°05'00.100" N
97°33'16.200" W
253.00 m
50309J6
71442
WSZ

Download Data

Hourly Data (June 2021)
Hourly Data Report for June 9, 2021
TIME
LST
Temp Definition
°C
Dew Point Definition
°C
Rel Hum Definition
%
Precip. Amount Definition
mm

Wind Dir Definition
10's deg

Wind Spd Definition
km/h
Visibility Definition
km
Stn Press Definition
kPa
Hmdx Definition


Wind Chill Definition


Weather Definition


00:00 20.9 7.5 42 0.0 4 8   98.62     LegendNANA
01:00 19.9 8.7 49 0.0 3 7   98.58     LegendNANA
02:00 19.6 9.1 51 0.0 6 9   98.65     LegendNANA
03:00 18.6 10.5 59 0.0 2 6   98.68     LegendNANA
04:00 18.1 10.7 62 0.0 32 7   98.69     LegendNANA
05:00 15.9 13.1 84 0.6 5 9   98.63     LegendNANA
06:00 15.6 14.0 90 2.8 5 3   98.68     LegendNANA
07:00 15.7 14.0 90 3.2 9 17   98.54     LegendNANA
08:00 17.0 15.3 90 0.2 10 16   98.50     LegendNANA
09:00 17.5 16.3 92 0.0 9 14   98.52     LegendNANA
10:00 18.4 16.0 86 0.0 7 16   98.42     LegendNANA
11:00 18.9 16.5 86 0.0 7 14   98.43     LegendNANA
12:00 19.4 16.3 82 0.0 4 11   98.41     LegendNANA
13:00 19.0 16.4 85 0.0 2 9   98.39     LegendNANA
14:00 18.6 16.4 87 0.0 2 9   98.36     LegendNANA
15:00 18.0 16.7 92 0.6 35 11   98.35     LegendNANA
16:00 17.9 16.5 91 0.2 34 14   98.36     LegendNANA
17:00 17.6 16.3 92 0.0 34 14   98.36     LegendNANA
18:00 17.3 16.1 93 0.0 34 15   98.36     LegendNANA
19:00 17.5 16.3 93 0.0 34 10   98.38     LegendNANA
20:00 17.0 15.9 93 0.0 34 18   98.43     LegendNANA
21:00 16.2 15.3 94 0.0 35 16   98.44     LegendNANA
22:00 16.1 15.1 94 0.0 35 15   98.47     LegendNANA
23:00 15.9 15.2 95 0.0 35 11   98.49     LegendNANA

Notes on Data Quality.

Legend

  • E = Estimated
  • M = Missing
  • NA = Not Available*
  • [empty] = Indicates an unobserved value
Date modified: